Myrtle Beach, SC

6:50 AM EDT on August 30, 2016 (GMT -0400)
Myrtle Beach International

Weather History for KMYR - March, 2013

Change the Weather History Date:

Sunday, March 17, 2013

  Actual Average Record
Temperature  
Mean Temperature 68 °F -  
Max Temperature 78 °F 62 °F 84 °F (2015)
Min Temperature 57 °F 43 °F 28 °F (1954)
Cooling Degree Days 2    
Growing Degree Days 18 (Base 50)    
Moisture  
Dew Point 47 °F    
Average Humidity 54    
Maximum Humidity 68    
Minimum Humidity 36    
Precipitation  
Precipitation 0.00 in - - ()
Sea Level Pressure  
Sea Level Pressure 29.96 in    
Wind  
Wind Speed 9 mph (SW)    
Max Wind Speed 21 mph    
Max Gust Speed 21 mph    
Visibility 10 miles    
Events      
Averages and records for this station are not official NWS values.
T = Trace of Precipitation, MM = Missing Value Source: NWS Daily Summary

Daily Weather History Graph

Daily Weather History Graph

Search for Another Location

Airport or City:

Trip Planner

Search our weather history database for the weather conditions in past years. The results will help you decide how hot, cold, wet, or windy it might be!

Date:

Astronomy

Mar. 17, 2013 Rise Set
Actual Time 7:23 AM EDT 7:25 PM EDT
Civil Twilight 6:58 AM EDT 7:50 PM EDT
Nautical Twilight 6:29 AM EDT 8:19 PM EDT
Astronomical Twilight 6:00 AM EDT 8:48 PM EDT
Moon 10:50 AM EDT (3/17) 12:16 AM EDT (3/17)
Length of Visible Light 12h 51m
Length of Day
12h 02m
Waxing Crescent, 31% of the Moon is Illuminated
Mar 17
Waxing Crescent
Mar 19
First Quarter
Mar 27
Full
Apr 3
Last Quarter
Apr 10
New

Hourly Weather History & Observations

Time (EDT) Temp. Dew Point Humidity Pressure Visibility Wind Dir Wind Speed Gust Speed Precip Events Conditions
12:15 AM 62.6 °F 44.6 °F 52% 29.93 in 10.0 mi SW 6.9 mph - N/A   Clear
12:35 AM 62.6 °F 44.6 °F 52% 29.93 in 10.0 mi SW 6.9 mph - N/A   Clear
12:55 AM 62.6 °F 44.6 °F 52% 29.93 in 10.0 mi SW 9.2 mph - N/A   Clear
1:15 AM 62.6 °F 42.8 °F 48% 29.93 in 10.0 mi SW 6.9 mph - N/A   Clear
1:35 AM 62.6 °F 42.8 °F 48% 29.93 in 10.0 mi SW 6.9 mph - N/A   Clear
1:55 AM 62.6 °F 42.8 °F 48% 29.93 in 10.0 mi WSW 8.1 mph - N/A   Clear
2:15 AM 62.6 °F 42.8 °F 48% 29.93 in 10.0 mi SW 8.1 mph - N/A   Clear
2:35 AM 62.6 °F 42.8 °F 48% 29.94 in 10.0 mi SW 8.1 mph - N/A   Clear
2:55 AM 62.6 °F 42.8 °F 48% 29.94 in 10.0 mi WSW 10.4 mph - N/A   Clear
3:15 AM 62.6 °F 42.8 °F 48% 29.94 in 10.0 mi WSW 10.4 mph 16.1 mph N/A   Clear
3:35 AM 62.6 °F 42.8 °F 48% 29.94 in 10.0 mi WSW 8.1 mph - N/A   Clear
3:55 AM 62.6 °F 42.8 °F 48% 29.94 in 10.0 mi WSW 9.2 mph - N/A   Clear
4:15 AM 60.8 °F 42.8 °F 52% 29.93 in 10.0 mi WSW 6.9 mph - N/A   Clear
4:35 AM 60.8 °F 44.6 °F 55% 29.93 in 10.0 mi SW 8.1 mph - N/A   Clear
4:55 AM 60.8 °F 44.6 °F 55% 29.94 in 10.0 mi WSW 8.1 mph - N/A   Clear
5:15 AM 59.0 °F 44.6 °F 59% 29.94 in 10.0 mi WSW 6.9 mph - N/A   Clear
5:35 AM 57.2 °F 44.6 °F 63% 29.94 in 10.0 mi WSW 6.9 mph - N/A   Clear
5:50 AM 59.0 °F 44.6 °F 59% 29.94 in 10.0 mi WSW 9.2 mph - N/A   Clear
5:55 AM 59.0 °F 44.6 °F 59% 29.95 in 10.0 mi WSW 6.9 mph - N/A   Clear
6:47 AM 57.2 °F 44.6 °F 63% 29.96 in 10.0 mi SSW 9.2 mph - N/A   Clear
7:47 AM 57.2 °F 44.6 °F 63% 29.97 in 10.0 mi WSW 9.2 mph - N/A   Clear
8:45 AM 60.8 °F 46.4 °F 59% 29.98 in 10.0 mi WSW 13.8 mph - N/A   Clear
9:45 AM 66.2 °F 48.2 °F 52% 29.99 in 10.0 mi WSW 12.7 mph - N/A   Clear
10:45 AM 69.8 °F 48.2 °F 46% 30.00 in 10.0 mi West 17.3 mph - N/A   Clear
11:45 AM 73.4 °F 51.8 °F 47% 30.00 in 10.0 mi West 10.4 mph 20.7 mph N/A   Clear
12:45 PM 77.0 °F 51.8 °F 41% 29.98 in 10.0 mi WSW 11.5 mph - N/A   Clear
1:50 PM 78.8 °F 50.0 °F 36% 29.96 in 10.0 mi SSW 13.8 mph - N/A   Clear
2:45 PM 69.8 °F 53.6 °F 56% 29.94 in 10.0 mi South 17.3 mph - N/A   Partly Cloudy
3:45 PM 68.0 °F 53.6 °F 60% 29.93 in 10.0 mi SSW 20.7 mph - N/A   Partly Cloudy
4:45 PM 66.2 °F 53.6 °F 64% 29.93 in 10.0 mi SSW 20.7 mph - N/A   Partly Cloudy
5:45 PM 64.4 °F 53.6 °F 68% 29.94 in 10.0 mi SSW 16.1 mph - N/A   Partly Cloudy
6:50 PM 64.4 °F 53.6 °F 68% 29.95 in 10.0 mi SSW 11.5 mph - N/A   Scattered Clouds
7:45 PM 64.4 °F 53.6 °F 68% 29.97 in 10.0 mi South 11.5 mph - N/A   Scattered Clouds
8:45 PM 64.4 °F 48.2 °F 56% 29.99 in 10.0 mi SW 13.8 mph - N/A   Clear
9:50 PM 64.4 °F 48.2 °F 56% 30.02 in 10.0 mi WSW 12.7 mph - N/A   Clear
10:55 PM 62.6 °F 46.4 °F 55% 30.05 in 10.0 mi SW 4.6 mph - N/A   Clear
11:15 PM 62.6 °F 46.4 °F 55% 30.05 in 10.0 mi WNW 4.6 mph - N/A   Clear
11:35 PM 59.0 °F 46.4 °F 63% 30.06 in 10.0 mi WSW 4.6 mph - N/A   Clear
11:55 PM 60.8 °F 46.4 °F 59% 30.05 in 10.0 mi South 3.5 mph - N/A   Clear